BREEZE-M R/B, 64468

Orbit data source: Space-Track

BREEZE-M R/B, 64468 is space debris in HEO originally from a launch on Thu, 19 Jun 2025 UTC launched from the Plesetsk Missile And Space Complex (PKMTR). Debris objects in space refer to the collection of defunct objects orbiting the Earth. Examples of debris include non-operational satellites, rocket bodies, and fragments generated from explosions, collisions, or faulty payload assembly.

Loading next visibility...
Identifier
64468, 2025-131B
Orbit
HEO
Last TLE update
4 weeks ago
Origin
Flag of CISKHRR (CIS)
Manufacturer
Khrunichev
Mission
Spacecraft
Bus & Motor
BRIZ, Unknown motor
Mass
~1,600 kg wet, 1,600 kg dry
Launch date (UTC)
2025-06-19 (1 month ago)
Launch vehicle
Unknown
Launch site
Plesetsk Missile And Space Complex (PKMTR)
Object type
Payload
Rocket body
Debris
Shape & HBR
Unknown
Radar Cross Section
Large (>1 m²)

Expand to show TLE details & history

TLE from 4 weeks ago
0 BREEZE-M R/B
1 64468U 25131B   25173.80781051 -.00000145  00000-0  00000+0 0  9998
2 64468   1.4224 285.7735 3876101 171.5822 241.3112  1.04440359    39
Epoch: 2025-06-22T19:23Z
TLE epoch observation values (Epoch: 2025-06-22T19:23:14.828Z)
Latitude
0.53575°
Longitude
106.30196°
Altitude
45,844.889 km
Speed
2.356 km/s
True Right ascension
20h 33m 21s
True Declination
0° 32' 07"
Sunlit
Object was in daylight at epoch
Visualization orbit readout
Latitude
-0.501°
Longitude
61.31415°
Altitude
49,450.099 km
Speed
2.137 km/s
Apparent Right ascension
17h 14m 41s
Apparent Declination
-4° 50' 24"
Sunlit
Object is in daylight
Visualization observer readout
Local Sidereal Time
21:48:18
Azimuth
252.056° W
Elevation
13.129°
Doppler factor
1
Orbital elements
Apogee altitude
50,564.618 km
Perigee altitude
18,752.242 km
Semi-major axis
41,036.567 km
Eccentricity
0.38761
Inclination
1.4224°
RAAN
285.7735°
Arg. of periapsis
171.5822°
True anomaly
211.11644°
Mean anomaly
241.3112°
Eccentric anomaly
225.47722°
Mean motion
0.26109 °/min
Orbital period
1,378.85 mins
BSTAR
0
Loading maneuver chart data...
Loading SW <> Apogee altitude chart data...
Loading historical data...
Loading historical data...
Loading historical data...
Loading historical data...
Loading historical data...
Loading historical data...
Loading historical data...
Other satellites on launch #131 in the year 2025 (2025-06-19 UTC)
|